カタログに戻る

COSMOS 2251 DEB

運用中LEO
NORAD 40808·DEBRIS·🇷🇺 Russia

打ち上げ Jun 16, 1993 から Plesetsk Cosmodrome

Loading…

次のパス (今後24時間)

TLE

最新Source: Space-Track

元期: Sep 13, 2026, 15:49 UTC

1 40808U 93036BWM 26256.65965888  .00004357  00000-0  70602-3 0  9994
2 40808  74.0418 332.7481 0010918 304.2739 207.9176 14.71507307676580

AllMySatでCOSMOS 2251 DEBをリアルタイム追跡

Download on the App Store